Maxwell AFB, AL

4:03 AM CST on January 23, 2018 (GMT -0600)
Maxwell Air Force Base

Weather History for KMXF - November, 2013

Change the Weather History Date:

Sunday, November 3, 2013

  Actual Average Record
Temperature  
Mean Temperature 54 °F -  
Max Temperature 67 °F 71 °F 86 °F (2000)
Min Temperature 42 °F 50 °F 35 °F (1999)
Degree Days  
Heating Degree Days 11    
Growing Degree Days 4 (Base 50)    
Moisture  
Dew Point 42 °F    
Average Humidity 69    
Maximum Humidity 96    
Minimum Humidity 33    
Precipitation  
Precipitation 0.00 in - - ()
Sea Level Pressure  
Sea Level Pressure 30.20 in    
Wind  
Wind Speed 4 mph (North)    
Max Wind Speed 10 mph    
Max Gust Speed 21 mph    
Visibility 10 miles    
Events      
Averages and records for this station are not official NWS values.
T = Trace of Precipitation, MM = Missing Value Source: NWS Daily Summary

Daily Weather History Graph

Daily Weather History Graph

Search for Another Location

Airport or City:

Trip Planner

Search our weather history database for the weather conditions in past years. The results will help you decide how hot, cold, wet, or windy it might be!

Date:

Astronomy

Nov. 03, 2013 Rise Set
Actual Time 6:04 AM CST 4:53 PM CST
Civil Twilight 5:39 AM CST 5:18 PM CST
Nautical Twilight 5:09 AM CST 5:47 PM CST
Astronomical Twilight 4:41 AM CST 6:16 PM CST
Moon 6:06 AM CST (11/3) 5:09 PM CST (11/3)
Length of Visible Light 11h 39m
Length of Day
10h 48m
New Moon, 0% of the Moon is Illuminated
Nov 3
New Moon
Nov 9
First Quarter
Nov 17
Full
Nov 25
Last Quarter
Dec 2
New

Hourly Weather History & Observations

Time (CST) Temp. Windchill Dew Point Humidity Pressure Visibility Wind Dir Wind Speed Gust Speed Precip Events Conditions
12:58 AM 51.3 °F - 41.4 °F 69% 30.12 in 10.0 mi WNW 2.3 mph - N/A   Clear
1:58 AM 47.1 °F - 41.5 °F 81% 30.13 in 10.0 mi WNW 2.3 mph - N/A   Clear
1:58 AM 46.0 °F - 42.1 °F 86% 30.14 in 10.0 mi NW 1.2 mph - N/A   Clear
2:58 AM 46.2 °F 43.3 °F 41.9 °F 85% 30.15 in 10.0 mi NNW 5.8 mph - N/A   Clear
3:58 AM 43.9 °F - 40.8 °F 89% 30.18 in 10.0 mi WSW 2.3 mph - N/A   Clear
4:58 AM 42.8 °F - 41.4 °F 95% 30.18 in 10.0 mi Calm Calm - N/A   Clear
5:58 AM 44.6 °F 43.1 °F 41.7 °F 90% 30.20 in 10.0 mi NE 3.5 mph - N/A   Clear
7:58 AM 51.6 °F - 44.1 °F 75% 30.24 in 10.0 mi NNE 10.4 mph - N/A   Clear
8:58 AM 56.1 °F - 43.9 °F 64% 30.26 in 10.0 mi NE 10.4 mph - N/A   Clear
9:58 AM 60.1 °F - 43.9 °F 55% 30.26 in 10.0 mi NE 10.4 mph - N/A   Clear
10:58 AM 63.5 °F - 41.7 °F 45% 30.25 in 10.0 mi Variable 4.6 mph 16.1 mph N/A   Clear
11:58 AM 65.5 °F - 37.8 °F 36% 30.22 in 10.0 mi NE 10.4 mph 20.7 mph N/A   Clear
12:58 PM 66.4 °F - 38.1 °F 35% 30.20 in 7.0 mi NNE 8.1 mph - N/A   Clear
1:58 PM 66.9 °F - 37.8 °F 34% 30.18 in 10.0 mi Variable 6.9 mph - N/A   Clear
2:58 PM 66.9 °F - 36.9 °F 33% 30.17 in 10.0 mi East 4.6 mph - N/A   Clear
3:58 PM 65.8 °F - 37.0 °F 35% 30.19 in 10.0 mi NE 4.6 mph - N/A   Clear
4:58 PM 61.5 °F - 40.5 °F 46% 30.20 in 10.0 mi North 3.5 mph - N/A   Clear
5:58 PM 55.6 °F - 46.4 °F 71% 30.20 in 10.0 mi North 3.5 mph - N/A   Clear
6:58 PM 50.9 °F - 46.9 °F 86% 30.20 in 7.0 mi Calm Calm - N/A   Clear
7:58 PM 50.4 °F - 48.6 °F 94% 30.21 in 10.0 mi NNW 2.3 mph - N/A   Clear
8:58 PM 48.6 °F - 46.8 °F 93% 30.25 in 10.0 mi NW 2.3 mph - N/A   Clear
9:58 PM 45.9 °F - 44.8 °F 96% 30.27 in 9.0 mi Calm Calm - N/A   Clear
10:58 PM 46.9 °F - 45.3 °F 94% 30.27 in 10.0 mi NNE 1.2 mph - N/A   Clear